Location: Newark
(25.0000°N, 73.5000°E)
Time: 01:07:10
(UTC+00:00)

Tiros 1 despin weight - Pass Details

Date: 01 March 2021
Orbit: 593 x 641 km, 48.2° (Epoch: 15 April)

Event Time Altitude Azimuth Distance (km) Brightness Sun altitude
Rises 01:37:40 0° 327° (NNW) 2,938 ? 1.1°
Reaches altitude 10° 01:40:22 10° 341° (NNW) 2,028 ? 1.7°
Maximum altitude 01:44:13 25° 36° (NE) 1,299 ? 2.6°
Drops below altitude 10° 01:48:02 10° 92° (E) 2,018 ? 3.5°
Sets 01:50:42 0° 105° (ESE) 2,920 ? 4.1°
